Starlink 33732

operational
NORAD ID: 63575 Int'l Des: 2025-076 Owner: SPXS Country: US Constellation: starlink
LEOCIRCULAR

About Starlink 33732

Description loading...

Live Position

Loading 3D Globe...

Upcoming Passes

Altitude History

Altitude vs Time

uPlot chart will show altitude changes over time

Two-Line Element Set

1 63575U 25076G 25258.29028426 .00076481 00000-0 27547-2 0 9994
2 63575 42.9984 232.4050 0001479 272.2664 87.8019 15.27644702 25008
Epoch: Sep 15, 2025 • Age: 15 hours

Current Status

Altitude 493.9 km
Velocity 7.62 km/s
Sub-Earth Point -40.79°S, 168.42°W
Launch Date Apr 14, 2025
Age 0.4 years
Type internet

Technical Details

Classification Payload
Mass 575.00 kg
Dry Mass 530.00 kg
Total Mass 575.00 kg
Length 0.30 m
Diameter 4.10 m
Span 29.00 m
Shape Box + pan
Manufacturer SPXS
Bus Type Starlink V2MO
Phase Status In Orbit
Owner/State SPXS/US

Large Constellations

Loading constellations...